Location: Unspecified
(33.6682°S, 0.0000°E)
Time: 10:28:25
(UTC+00:00)

Courier 1B - Pass Details

Date: 17 June 2019
Orbit: 962 x 1209 km, 28.3° (Epoch: 16 August)

Event Time Altitude Azimuth Distance (km) Brightness Sun altitude
Rises 05:43:19 0° 338° (NNW) 3,858 10.6 -16.2°
Reaches altitude 10° 05:48:03 10° 6° (N) 2,846 10.2 -15.2°
Maximum altitude 05:50:43 12° 29° (NNE) 2,638 10.4 -14.7°
Drops below altitude 10° 05:53:20 10° 52° (NE) 2,788 11.1 -14.2°
Sets 05:57:51 0° 80° (E) 3,697 12.4 -13.3°
